Regional Weather Roundup
Issued by NWS

Home | Current Version | Previous Version | Graphics & Text | Print | Product List | Glossary On
Versions: 1 2 3 4 5 6 7 8 9 10 11 12 13 14 15 16 17 18 19 20 21 22 23 24 25 26 27 28 29 30 31 32 33 34 35 36 37 38 39 40 41 42 43 44 45 46 47 48 49 50
000
ASUS43 KBIS 230202
RWRND

NORTH DAKOTA REGIONAL WEATHER ROUNDUP
NATIONAL WEATHER SERVICE BISMARCK ND
800 PM CST WED NOV 22 2017

NOTE: "FAIR" INDICATES FEW OR NO CLOUDS BELOW 12,000 FEET WITH NO
SIGNIFICANT WEATHER AND/OR OBSTRUCTIONS TO VISIBILITY.


NDZ001>003-009>011-017-230300-
NORTHWEST NORTH DAKOTA

CITY           SKY/WX    TMP DP  RH WIND       PRES   REMARKS
WILLISTON      CLOUDY    30  25  81 NW3       29.97R
MINOT          CLOUDY    22  18  85 NW6       29.97R WCI  14
MINOT AFB      CLOUDY    21  18  86 N5        29.96R WCI  15
$$

NDZ018>021-031>035-040>046-230300-
SOUTHWEST NORTH DAKOTA

CITY           SKY/WX    TMP DP  RH WIND       PRES   REMARKS
BISMARCK       CLEAR     39  28  64 N7        29.98R
DICKINSON      CLEAR     33  30  88 W7        29.95R
GARRISON         N/A     27  25  92 N7        29.97R WCI  19
HETTINGER ARPT CLEAR     40  34  79 NW12      29.99R
$$

NDZ004>008-012>016-024-026-027-054-230300-
NORTHEAST NORTH DAKOTA

CITY           SKY/WX    TMP DP  RH WIND       PRES   REMARKS
GRAND FORKS    CLOUDY    28  21  75 CALM      29.95R
GRND FRKS AFB  CLOUDY    27  21  79 CALM      29.95R
DEVILS LAKE    CLOUDY    26  24  92 N12       29.95R WCI  16
$$

NDZ022-023-025-028>030-036>039-047>053-230300-
SOUTHEAST NORTH DAKOTA

CITY           SKY/WX    TMP DP  RH WIND       PRES   REMARKS
FARGO          CLOUDY    27  16  63 S7        29.92R WCI  19
JAMESTOWN      CLOUDY    30  24  78 NW12      29.93R
$$




USA.gov is the U.S. government's official web portal to all federal, state and local government web resources and services.